Location: Baia Mare
(47.6567°N, 23.5850°E)
Time: 13:31:43
(UTC+03:00)

ISS - Pass Details

Date: 22 July 2019
Orbit: 409 x 418 km, 51.6° (Epoch: 21 July)

Event Time Altitude Azimuth Distance (km) Brightness Sun altitude
Rises 22:23:33 0° 261° (W) 2,351 0.6 -10.1°
Reaches altitude 10° 22:25:41 10° 266° (W) 1,489 -0.4 -10.3°
Maximum altitude 22:28:57 53° 345° (NNW) 513 -2.9 -10.7°
Drops below altitude 10° 22:32:14 10° 64° (ENE) 1,487 -1.1 -11.1°
Sets 22:34:22 0° 69° (ENE) 2,349 -0.2 -11.3°
